Location: Clanezzo
(45.7500°N, 9.6000°E)
Time: 03:44:56
(UTC+00:00)

SeaSat 1 - Pass Details

Date: 12 May 2021
Orbit: 744 x 747 km, 108.0° (Epoch: 18 June)

Event Time Altitude Azimuth Distance (km) Brightness Sun altitude
Rises 22:20:24 0° 43° (NE) 3,199 6.1 -24.6°
Reaches altitude 10° 22:23:30 10° 64° (ENE) 2,269 5.1 -24.7°
Enters shadow 22:25:21 15° 85° (E) 1,923 4.5 -24.8°
